EN

Hourly Weather Almenno San Salvatore

Today, 18 January, Monday

Time Temperature Precipitation Wind Pressure Humidity
00:00 +1°C° 0 mm 1 mps 733 mmHg 80%
01:00 0°C° 0 mm 1 mps 734 mmHg 79%
02:00 0°C° 0 mm 1 mps 734 mmHg 78%
03:00 0°C° 0 mm 1 mps 734 mmHg 77%
04:00 0°C° 0 mm 1 mps 734 mmHg 76%
05:00 0°C° 0 mm 1 mps 735 mmHg 76%
06:00 0°C° 0 mm 1 mps 735 mmHg 75%
07:00 0°C° 0 mm 1 mps 735 mmHg 74%
08:00 +1°C° 0 mm 1 mps 736 mmHg 70%
09:00 +1°C° 0 mm 1 mps 736 mmHg 66%
10:00 +2°C° 0 mm 1 mps 736 mmHg 62%
11:00 +3°C° 0 mm 1 mps 736 mmHg 60%
12:00 +4°C° 0 mm 1 mps 736 mmHg 58%
13:00 +5°C° 0 mm 1 mps 735 mmHg 56%
14:00 +5°C° 0 mm 1 mps 735 mmHg 59%
15:00 +4°C° 0 mm 1 mps 735 mmHg 62%
16:00 +4°C° 0 mm 1 mps 735 mmHg 64%
17:00 +3°C° 0 mm 1 mps 735 mmHg 67%
18:00 +2°C° 0 mm 1 mps 736 mmHg 70%
19:00 +1°C° 0 mm 1 mps 736 mmHg 72%
20:00 +1°C° 0 mm 1 mps 736 mmHg 70%
21:00 +1°C° 0 mm 1 mps 736 mmHg 68%
22:00 +1°C° 0 mm 1 mps 736 mmHg 65%
23:00 +1°C° 0 mm 1 mps 736 mmHg 64%

Tomorrow, 19 January, Tuesday

Time Temperature Precipitation Wind Pressure Humidity
00:00 +1°C° 0 mm 1 mps 736 mmHg 63%
01:00 +1°C° 0 mm 1 mps 736 mmHg 62%
02:00 0°C° 0 mm 1 mps 736 mmHg 61%
03:00 0°C° 0 mm 1 mps 736 mmHg 61%
04:00 0°C° 0 mm 1 mps 735 mmHg 60%
05:00 -1°C° 0 mm 0 mps 735 mmHg 59%
06:00 -1°C° 0 mm 0 mps 735 mmHg 58%
07:00 -1°C° 0 mm 0 mps 735 mmHg 57%
08:00 0°C° 0 mm 0 mps 735 mmHg 55%
09:00 +1°C° 0 mm 0 mps 735 mmHg 52%
10:00 +2°C° 0 mm 0 mps 735 mmHg 50%
11:00 +3°C° 0 mm 0 mps 735 mmHg 48%
12:00 +4°C° 0 mm 0 mps 735 mmHg 46%
13:00 +6°C° 0 mm 1 mps 734 mmHg 44%
14:00 +5°C° 0 mm 1 mps 734 mmHg 48%
15:00 +5°C° 0 mm 1 mps 733 mmHg 52%
16:00 +4°C° 0 mm 1 mps 733 mmHg 56%
17:00 +4°C° 0 mm 1 mps 733 mmHg 58%
18:00 +3°C° 0 mm 1 mps 734 mmHg 59%
19:00 +3°C° 0 mm 1 mps 734 mmHg 60%
20:00 +3°C° 0 mm 1 mps 734 mmHg 60%
21:00 +3°C° 0 mm 1 mps 734 mmHg 59%
22:00 +3°C° 0 mm 1 mps 734 mmHg 59%
23:00 +3°C° 0 mm 1 mps 734 mmHg 60%

Day after tomorrow, 20 January, Wednesday

Time Temperature Precipitation Wind Pressure Humidity
00:00 +2°C° 0 mm 1 mps 734 mmHg 61%
01:00 +2°C° 0 mm 1 mps 734 mmHg 63%
02:00 +2°C° 0 mm 1 mps 733 mmHg 64%
03:00 +3°C° 0 mm 1 mps 733 mmHg 65%
04:00 +3°C° 0 mm 1 mps 732 mmHg 67%
05:00 +3°C° 0 mm 1 mps 732 mmHg 69%
06:00 +2°C° 0 mm 1 mps 732 mmHg 70%
07:00 +2°C° 0 mm 1 mps 732 mmHg 72%
08:00 +3°C° 0 mm 1 mps 732 mmHg 72%
09:00 +3°C° 0 mm 1 mps 732 mmHg 71%
10:00 +2°C° 0 mm 0 mps 732 mmHg 71%
11:00 +4°C° 0 mm 1 mps 732 mmHg 74%
12:00 +4°C° 0 mm 1 mps 731 mmHg 77%
13:00 +4°C° 0 mm 1 mps 731 mmHg 80%
14:00 +4°C° 0.2 mm 1 mps 730 mmHg 83%
15:00 +4°C° 0.2 mm 1 mps 730 mmHg 87%
16:00 +4°C° 0.2 mm 1 mps 730 mmHg 90%
17:00 +4°C° 0.3 mm 1 mps 730 mmHg 92%
18:00 +3°C° 0.3 mm 1 mps 730 mmHg 93%
19:00 +3°C° 0.3 mm 1 mps 730 mmHg 95%
20:00 +4°C° 0.4 mm 1 mps 730 mmHg 96%
21:00 +4°C° 0.4 mm 1 mps 730 mmHg 96%
22:00 +4°C° 0.4 mm 1 mps 730 mmHg 97%
23:00 +4°C° 0.3 mm 1 mps 729 mmHg 97%

21 January, Thursday

Time Temperature Precipitation Wind Pressure Humidity
00:00 +4°C° 0.3 mm 1 mps 729 mmHg 97%
01:00 +4°C° 0.3 mm 1 mps 729 mmHg 97%
02:00 +3°C° 0.4 mm 0 mps 728 mmHg 97%
03:00 +3°C° 0.4 mm 0 mps 728 mmHg 97%
04:00 +3°C° 0.4 mm 0 mps 727 mmHg 97%
05:00 +3°C° 0.6 mm 0 mps 727 mmHg 97%
06:00 +3°C° 0.6 mm 0 mps 727 mmHg 97%
07:00 +3°C° 0.6 mm 0 mps 727 mmHg 97%
08:00 +3°C° 0.7 mm 0 mps 727 mmHg 97%
09:00 +4°C° 0.7 mm 0 mps 727 mmHg 97%
10:00 +4°C° 0.7 mm 0 mps 726 mmHg 96%
11:00 +4°C° 0.4 mm 0 mps 726 mmHg 96%
12:00 +4°C° 0.4 mm 0 mps 726 mmHg 96%
13:00 +4°C° 0.4 mm 0 mps 725 mmHg 96%
14:00 +4°C° 0.2 mm 0 mps 725 mmHg 96%
15:00 +4°C° 0.2 mm 0 mps 725 mmHg 96%
16:00 +4°C° 0.2 mm 0 mps 724 mmHg 96%
17:00 +4°C° 0.4 mm 0 mps 724 mmHg 96%
18:00 +4°C° 0.4 mm 0 mps 724 mmHg 97%
19:00 +4°C° 0.4 mm 0 mps 725 mmHg 97%
20:00 +4°C° 0.9 mm 0 mps 724 mmHg 97%
21:00 +4°C° 0.9 mm 0 mps 724 mmHg 97%
22:00 +4°C° 0.9 mm 0 mps 723 mmHg 97%
23:00 +5°C° 1.2 mm 1 mps 723 mmHg 97%

22 January, Friday

Time Temperature Precipitation Wind Pressure Humidity
00:00 +5°C° 1.2 mm 1 mps 722 mmHg 97%
01:00 +5°C° 1.2 mm 1 mps 722 mmHg 98%
02:00 +5°C° 2 mm 1 mps 721 mmHg 98%
03:00 +5°C° 2 mm 1 mps 720 mmHg 98%
04:00 +5°C° 2 mm 1 mps 719 mmHg 98%
05:00 +5°C° 0.7 mm 1 mps 719 mmHg 98%
06:00 +4°C° 0.7 mm 0 mps 719 mmHg 98%
07:00 +4°C° 0.7 mm 0 mps 718 mmHg 97%
08:00 +4°C° 0.5 mm 0 mps 718 mmHg 97%
09:00 +4°C° 0.5 mm 0 mps 718 mmHg 98%
10:00 +4°C° 0.5 mm 0 mps 717 mmHg 98%
11:00 +5°C° 0.1 mm 0 mps 717 mmHg 95%
12:00 +7°C° 0.1 mm 1 mps 717 mmHg 92%
13:00 +8°C° 0.1 mm 1 mps 717 mmHg 89%
14:00 +8°C° 0 mm 1 mps 717 mmHg 89%
15:00 +7°C° 0 mm 0 mps 717 mmHg 88%
16:00 +7°C° 0 mm 0 mps 717 mmHg 87%
17:00 +7°C° 0 mm 1 mps 717 mmHg 88%
18:00 +6°C° 0 mm 1 mps 717 mmHg 88%
19:00 +5°C° 0 mm 1 mps 718 mmHg 88%
20:00 +5°C° 0 mm 1 mps 718 mmHg 86%
21:00 +5°C° 0 mm 1 mps 718 mmHg 85%
22:00 +5°C° 0 mm 1 mps 718 mmHg 83%
23:00 +5°C° 0 mm 1 mps 718 mmHg 82%

23 January, Saturday

Time Temperature Precipitation Wind Pressure Humidity
00:00 +5°C° 0 mm 1 mps 718 mmHg 82%
01:00 +5°C° 0 mm 1 mps 717 mmHg 82%
02:00 +5°C° 0 mm 1 mps 717 mmHg 82%
03:00 +4°C° 0 mm 1 mps 716 mmHg 82%
04:00 +4°C° 0 mm 1 mps 716 mmHg 82%
05:00 +4°C° 0 mm 1 mps 716 mmHg 81%
06:00 +5°C° 0 mm 1 mps 716 mmHg 81%
07:00 +5°C° 0 mm 1 mps 715 mmHg 81%
08:00 +5°C° 0 mm 1 mps 716 mmHg 81%
09:00 +5°C° 0 mm 1 mps 716 mmHg 81%
10:00 +6°C° 0 mm 1 mps 716 mmHg 81%
11:00 +6°C° 0.2 mm 1 mps 716 mmHg 81%
12:00 +7°C° 0.2 mm 1 mps 715 mmHg 82%
13:00 +6°C° 0.2 mm 2 mps 715 mmHg 82%
14:00 +6°C° 0.1 mm 2 mps 716 mmHg 81%
15:00 +6°C° 0.1 mm 2 mps 716 mmHg 80%
16:00 +6°C° 0.1 mm 2 mps 717 mmHg 79%
17:00 +5°C° 0 mm 2 mps 718 mmHg 79%
18:00 +4°C° 0 mm 2 mps 718 mmHg 79%
19:00 +3°C° 0 mm 2 mps 719 mmHg 79%
20:00 +3°C° 0 mm 2 mps 720 mmHg 76%
21:00 +2°C° 0 mm 2 mps 721 mmHg 73%
22:00 +2°C° 0 mm 2 mps 722 mmHg 70%
23:00 +2°C° 0 mm 2 mps 722 mmHg 68%
Show more